Location: Chippewa Lake
(41.0698°N, 81.9010°W)
Time: 21:16:31
(UTC+00:00)

ATLAS 5 CENTAUR R/B - Visible Passes

Search period start: 19 September 2021 00:00
Search period end: 29 September 2021 00:00
Orbit: 509 x 1148 km, 63.4° (Epoch: 14 August)

Date Brightness Start Highest point End Pass type
(mag) Time Alt. Az. Time Alt. Az. Time Alt. Az.
19 Sep 3.6 08:51:59 17° NNW 08:51:59 17° NNW 08:53:55 10° N visible
20 Sep 3.9 08:33:12 15° N 08:33:12 15° N 08:34:34 10° N visible
21 Sep 4.2 08:14:24 13° N 08:14:24 13° N 08:15:13 10° N visible
22 Sep 4.5 07:55:35 11° N 07:55:35 11° N 07:55:51 10° N visible
